NOAA 16 DEB, 42333

Orbit data source: Space-Track

NOAA 16 DEB, 42333 is space debris in SSO originally from a launch on Thu, 21 Sep 2000 UTC launched from the Air Force Western Test Range (AFWTR). Debris objects in space refer to the collection of defunct objects orbiting the Earth. Examples of debris include non-operational satellites, rocket bodies, and fragments generated from explosions, collisions, or faulty payload assembly.

Loading next visibility...
Identifier
42333, 2000-055PZ
Orbit
SSO
Country
Flag of USUS
Related business
Manufacturer
Unknown
Mission
Spacecraft
Bus & Motor
Unknown
Mass
Unknown
Launch date (UTC)
2000-09-21 (25 years ago)
Launch vehicle
Unknown
Launch site
Air Force Western Test Range (AFWTR)
Object type
Payload
Rocket body
Debris
Shape & HBR
Unknown shape, 0.1 m
Radar Cross Section
Small (<0.1 m²)

Expand to show TLE details & history
Last TLE update: 3 days ago

TLE from 3 days ago
0 NOAA 16 DEB
1 42333U 00055PZ  26032.28871176  .00004731  00000-0  19363-2 0  9997
2 42333  98.9597 157.4215 0016380 251.7697 108.1700 14.27625574510606
Epoch: 2026-02-01T06:55Z
TLE epoch observation values (Epoch: 2026-02-01T06:55:44.696Z)
Latitude
-0.00003°
Longitude
-78.01522°
Altitude
806.28 km
Speed
7.448 km/s
True Right ascension
10h 29m 41s
True Declination
0° 00' 00"
Sunlit
Object was in full shadow at epoch
Visualization orbit readout
Latitude
Unknown
Longitude
Unknown
Altitude
Unknown
Speed
Unknown
Apparent Right ascension
Unknown
Apparent Declination
Unknown
Sunlit
N/A
Visualization observer readout
Local Sidereal Time
23:15:44
Azimuth
Unknown
Elevation
Unknown
Doppler factor
Unknown
Orbital elements
Apogee altitude
808.592 km
Perigee altitude
785.087 km
Semi-major axis
7,174.976 km
Eccentricity
0.00164
Inclination
98.9597°
RAAN
157.4215°
Arg. of periapsis
251.7697°
True anomaly
108.34823°
Mean anomaly
108.17°
Eccentric anomaly
108.25913°
Mean motion
3.57119 °/min
Orbital period
100.81 mins
BSTAR
0.0019363
Loading maneuver chart data...
Computing Atmospheric mass density...
Loading historical data...
Loading historical data...
Loading historical data...
Loading historical data...
Loading historical data...
Loading historical data...
Loading historical data...

Documentation

Showing up to 5 results
|